Content
SEND FEEDBACK

Daily
Averages
Monthly
Summary
France

MULHOUSE, FRANCE


Home > Europe > France
Elevation: 886 feet     Latitude: 47 35N     Longitude: 007 31E

WEATHER
 
SELECT A DAY
Number of Records: 289,562;   Date Range: 7/1/96 - 7/28/14
 
SHARE

PRINT THIS DATA

[ ← Previous Day ]
WEATHER ALMANAC - JANUARY 31, 2013
[ Next Day → ]
[ °C ]   °F
Weather ElementAverageHighLow
Temperature48.5 °F53.6 °F (1:00 pm)42.8 °F (4:30 am)
Dewpoint38.6 °F42.8 °F (12:30 am)33.8 °F (1:30 pm)
Humidity68.9 %82 % (12:30 am)41 % (1:00 pm)
Barometer30.21 in30.31 in (1:00 am)30.12 in (6:30 pm)
Wind Speed10.5 mph21.9 mph (2:30 pm)
Wind Gust38 mph (3:00 pm)
Weather ElementAverage
Visibility8.1 mi
Wind DirectionSW (229.4 °)

Weather ElementTotal
Precipitation---
Heating Degree Days16.8 (Base 65)
Averaged from 51 records on January 31, 2013
WEATHER CONDITIONS BREAKOUT
WIND DIRECTION BREAKOUT
WEATHER BY HOUR - JANUARY 31, 2013
[ °C ]   °F
Local TimeTemperatureDewpointHumidityBarometerVisibilityWind DirectionWind SpeedGust SpeedPrecipitationEventsConditions
12:30 AM48.2 °F42.8 °F82 %30.27 in6.2 miSSE (150°)4.6 mphOvercast
1:00 AM47.0 °F41.0 °F73 %30.31 in37.0 miSouth (180°)8.1 mphClear
1:00 AM48.2 °F41.0 °F76 %30.27 in6.2 miSouth (180°)8.1 mphOvercast
1:30 AM46.4 °F41.0 °F81 %30.27 in6.2 miSW (230°)5.8 mphPartly Cloudy
2:00 AM46.4 °F39.2 °F76 %30.27 in6.2 miWSW (250°)13.8 mph
2:30 AM46.4 °F39.2 °F76 %30.30 in6.2 miWSW (250°)10.4 mphPartly Cloudy
3:00 AM46.4 °F37.4 °F71 %30.30 in6.2 miSouth (190°)5.8 mphPartly Cloudy
3:30 AM44.6 °F37.4 °F76 %30.30 in6.2 miWSW (250°)10.4 mphPartly Cloudy
4:00 AM44.6 °F37.4 °F76 %30.27 in6.2 miSW (230°)5.8 mphPartly Cloudy
4:30 AM42.8 °F37.4 °F81 %30.27 in6.2 miSW (220°)5.8 mphScattered Clouds
5:00 AM44.6 °F37.4 °F76 %30.27 in6.2 miSW (220°)5.8 mphScattered Clouds
5:30 AM44.6 °F37.4 °F76 %30.27 in6.2 miSouth (190°)5.8 mphScattered Clouds
6:00 AM44.6 °F37.4 °F76 %30.27 in6.2 miWSW (250°)5.8 mphMostly Cloudy
6:30 AM44.6 °F39.2 °F81 %30.27 in6.2 miSSW (210°)4.6 mphMostly Cloudy
7:00 AM44.0 °F38.0 °F73 %30.29 in19.0 miSSW (200°)4.6 mphMostly Cloudy
7:00 AM44.6 °F37.4 °F76 %30.24 in6.2 miSSW (200°)4.6 mphMostly Cloudy
7:30 AM44.6 °F39.2 °F81 %30.24 in6.2 miSW (230°)5.8 mphMostly Cloudy
8:00 AM42.8 °F37.4 °F81 %30.27 in6.2 miVariable3.5 mphMostly Cloudy
8:30 AM42.8 °F37.4 °F81 %30.27 in6.2 miSW (220°)4.6 mphMostly Cloudy
9:00 AM44.6 °F39.2 °F81 %30.27 in6.2 miSW (220°)5.8 mphMostly Cloudy
9:30 AM44.6 °F39.2 °F81 %30.27 in6.2 miSSW (210°)5.8 mphMostly Cloudy
10:00 AM46.4 °F39.2 °F76 %30.24 in6.2 miSW (220°)4.6 mphMostly Cloudy
10:30 AM48.2 °F41.0 °F76 %30.24 in6.2 miSW (220°)5.8 mphMostly Cloudy
11:00 AM50.0 °F41.0 °F71 %30.24 in6.2 miWSW (250°)13.8 mphMostly Cloudy
11:30 AM50.0 °F39.2 °F66 %30.24 in6.2 miWest (260°)13.8 mphMostly Cloudy
12:00 PM50.0 °F39.2 °F66 %30.21 in6.2 miWSW (250°)11.5 mphMostly Cloudy
12:30 PM51.8 °F37.4 °F58 %30.21 in6.2 miWSW (240°)9.2 mphMostly Cloudy
1:00 PM53.0 °F36.0 °F41 %30.20 in37.0 miWSW (250°)15.0 mphScattered Clouds
1:00 PM53.6 °F35.6 °F51 %30.18 in6.2 miWSW (250°)15.0 mph28.8 mphMostly Cloudy
1:30 PM53.6 °F33.8 °F47 %30.18 in6.2 miWest (270°)17.3 mph32.2 mphMostly Cloudy
2:00 PM53.6 °F35.6 °F51 %30.18 in6.2 miWest (270°)20.7 mph34.5 mphMostly Cloudy
2:30 PM51.8 °F35.6 °F54 %30.15 in6.2 miWSW (250°)21.9 mph36.8 mphMostly Cloudy
3:00 PM51.8 °F37.4 °F58 %30.15 in6.2 miWest (260°)18.4 mph38.0 mphMostly Cloudy
3:30 PM51.8 °F37.4 °F58 %30.15 in6.2 miWSW (250°)13.8 mphMostly Cloudy
4:00 PM51.8 °F37.4 °F58 %30.15 in6.2 miWSW (240°)13.8 mphMostly Cloudy
4:30 PM50.0 °F37.4 °F62 %30.15 in6.2 miWSW (250°)13.8 mphMostly Cloudy
5:00 PM50.0 °F37.4 °F62 %30.15 in6.2 miWSW (250°)9.2 mphMostly Cloudy
5:30 PM50.0 °F37.4 °F62 %30.15 in6.2 miWest (260°)10.4 mph21.9 mphMostly Cloudy
6:00 PM50.0 °F37.4 °F62 %30.15 in6.2 miWest (260°)9.2 mphMostly Cloudy
6:30 PM50.0 °F37.4 °F62 %30.12 in6.2 miSW (220°)4.6 mphMostly Cloudy
7:00 PM51.0 °F38.0 °F52 %30.15 in31.0 miSW (230°)8.1 mphOvercast
7:00 PM50.0 °F39.2 °F66 %30.12 in6.2 miSW (230°)6.9 mphMostly Cloudy
7:30 PM51.8 °F39.2 °F62 %30.12 in6.2 miWSW (250°)15.0 mphMostly Cloudy
8:00 PM50.0 °F41.0 °F71 %30.12 in6.2 miWSW (250°)15.0 mphMostly Cloudy
8:30 PM50.0 °F41.0 °F71 %30.12 in6.2 miWSW (240°)12.7 mphMostly Cloudy
9:00 PM51.8 °F41.0 °F67 %30.12 in6.2 miWSW (240°)16.1 mph27.6 mphMostly Cloudy
9:30 PM51.8 °F41.0 °F67 %30.12 in6.2 miWSW (250°)17.3 mph28.8 mphMostly Cloudy
10:00 PM50.0 °F41.0 °F71 %30.12 in6.2 miWest (260°)19.6 mph33.4 mphRainLight Rain
10:30 PM50.0 °F41.0 °F71 %30.12 in6.2 miWSW (250°)17.3 mphRainLight Rain
11:00 PM50.0 °F41.0 °F71 %30.12 in6.2 miWSW (250°)15.0 mph27.6 mphMostly Cloudy
11:30 PM50.0 °F41.0 °F71 %30.12 in6.2 miWSW (250°)13.8 mphMostly Cloudy
Hourly data recorded from LFSB, located miles away from Mulhouse, France







STORIES FROM OUR PARTNERS